Regional Weather Roundup
Issued by NWS

Home | Current Version | Previous Version | Text Only | Print | Product List | Glossary On
Versions: 1 2 3 4 5 6 7 8 9 10 11 12 13 14 15 16 17 18 19 20 21 22 23 24 25 26 27 28 29 30 31 32 33 34 35 36 37 38 39 40 41 42 43 44 45 46 47 48 49 50
000
ASUS45 KREV 271610
RWRNV
NEVADA REGIONAL WEATHER ROUNDUP
NATIONAL WEATHER SERVICE RENO NV
800 AM PST FRI FEB 27 2015

NOTE: "FAIR" INDICATES FEW OR NO CLOUDS BELOW 12,000 FEET WITH NO
SIGNIFICANT WEATHER AND/OR OBSTRUCTIONS TO VISIBILITY.

NVZ001-003-004-271700-
WESTERN NEVADA

CITY           SKY/WX    TMP DP  RH WIND       PRES   REMARKS
RENO           LGT RAIN  39  25  57 CALM      29.79S
CARSON CITY    FAIR      41  23  48 CALM      29.78S
MINDEN         CLOUDY    46  27  46 SW7       29.79
SLIDE MTN        N/A     23  21  93 W14         N/A
PYRAMID LAKE     N/A     43 N/A N/A SW6         N/A
FALLON         PTSUNNY   39  23  52 S3        29.78S
LOVELOCK       PTSUNNY   36  33  89 CALM      29.78S
HAWTHORNE      PTSUNNY   39  21  48 CALM      29.79S
$$

NVZ002-CAZ072-073-271700-
NORTHERN AND CENTRAL SIERRA

CITY           SKY/WX    TMP DP  RH WIND       PRES   REMARKS
S. LAKE TAHOE  PTSUNNY   39  29  67 S10       29.79S
TRUCKEE        MOSUNNY   28  25  86 CALM      29.80S
SQUAW VLY 8000   N/A     30  28  93 SW12        N/A
SUSANVILLE     PTSUNNY   36  30  80 CALM      29.78F
BLUE CANYON    CLOUDY    37  33  85 CALM      29.82S
MAMMOTH LAKES  FAIR      41  18  38 W9G22     29.79S
BRIDGEPORT     FLURRIES  36  24  62 SW17      29.76S
$$

NVZ030-031-036-271700-
NORTHERN NEVADA

CITY           SKY/WX    TMP DP  RH WIND       PRES   REMARKS
ELKO           CLOUDY    29  27  92 CALM      29.79R
WINNEMUCCA     MIX PCPN  34  32  92 S10       29.77F
WENDOVER       MOSUNNY   36  28  75 E3        29.82S
$$

NVZ035-037-271700-
CENTRAL NEVADA

CITY           SKY/WX    TMP DP  RH WIND       PRES   REMARKS
ELY            SUNNY     27  18  69 S6        29.81R
EUREKA           N/A     30  19  63 CALM      29.78F
$$

NVZ013-014-271700-
SOUTH CENTRAL NEVADA

CITY           SKY/WX    TMP DP  RH WIND       PRES   REMARKS
TONOPAH        CLOUDY    37  17  44 N5        29.81S
$$

NVZ017-020-022-271700-
SOUTHERN NEVADA

CITY           SKY/WX    TMP DP  RH WIND       PRES   REMARKS
LAS VEGAS      MOSUNNY   52  25  35 S9        29.76S
N. LAS VEGAS   MOSUNNY   51  27  39 CALM      29.79S
NELLIS AFB     MOSUNNY   52  26  36 VRB2      29.79S
HENDERSON      SUNNY     50  27  40 SW3       29.81S
MERCURY        PTSUNNY   48  20  32 NE9       29.79R
$$


USA.gov is the U.S. government's official web portal to all federal, state and local government web resources and services.